Location: Allentsteig
(48.6833°N, 15.3167°E)
Time: 22:38:51
(UTC+00:00)

USA 238 DEB - Pass Details

Date: 18 January 2021
Orbit: 995 x 1217 km, 63.4° (Epoch: 07 March)

Event Time Altitude Azimuth Distance (km) Brightness Sun altitude
Rises 05:14:39 0° 176° (S) 3,710 6.8 -14.4°
Reaches altitude 10° 05:17:39 10° 163° (SSE) 2,781 6.3 -13.9°
Maximum altitude 05:22:47 25° 111° (ESE) 1,946 6.1 -13.1°
Drops below altitude 10° 05:28:05 10° 59° (ENE) 2,890 6.6 -12.2°
Sets 05:31:15 0° 47° (NE) 3,887 7.1 -11.7°
